This demonstration page uses our WeatherBlox Daily Observations layout. Learn more.

39.29038, -76.61219

Hourly Observations for September 5, 2016

Temp ( °F °C ) Dew Point ( °F °C ) Humidity (%) Winds ( mph kmh ) Pressure ( in mb ) Visibility ( mi km ) Precip ( " mm )
12:54 am 00:54 undefined 71 21.7 58 14.4 63 63 undefined N/A 30.23 1024 N/A 0 0
1:54 am 01:54 undefined 70 21.1 58 14.4 66 66 undefined N/A 30.22 1023 N/A 0 0
2:54 am 02:54 undefined 69 20.6 57 13.9 66 66 undefined N/A 30.22 1023 N/A 0 0
3:54 am 03:54 undefined 68 20 57 13.9 68 68 undefined N/A 30.21 1023 N/A 0 0
4:54 am 04:54 undefined 68 20 56 13.3 65 65 undefined N/A 30.22 1023 N/A 0 0
5:54 am 05:54 undefined 68 20 55 12.8 63 63 undefined N/A 30.22 1024 N/A 0 0
6:54 am 06:54 undefined 68 20 55 12.8 63 63 undefined N/A 30.23 1024 N/A 0 0
7:54 am 07:54 undefined 70 21.1 55 12.8 59 59 undefined N/A 30.23 1024 N/A 0 0
8:54 am 08:54 undefined 72 22.2 56 13.3 57 57 undefined N/A 30.24 1024 N/A 0 0
9:54 am 09:54 undefined 75 23.9 56 13.3 52 52 undefined N/A 30.25 1024 N/A 0 0
10:54 am 10:54 undefined 77 25 56 13.3 48 48 undefined N/A 30.24 1024 N/A 0 0
11:54 am 11:54 undefined 78 25.6 56 13.3 47 47 undefined N/A 30.22 1023 N/A 0 0
12:54 pm 12:54 undefined 81 27.2 59 15 47 47 undefined N/A 30.18 1022 N/A 0 0
1:54 pm 13:54 undefined 83 28.3 59 15 44 44 undefined N/A 30.16 1021 N/A 0 0
2:54 pm 14:54 undefined 84 28.9 59 15 43 43 undefined N/A 30.13 1020 N/A 0 0
3:54 pm 15:54 undefined 85 29.4 58 14.4 40 40 undefined N/A 30.09 1019 N/A 0 0
4:54 pm 16:54 undefined 86 30 56 13.3 36 36 undefined N/A 30.08 1019 N/A 0 0
5:54 pm 17:54 undefined 85 29.4 57 13.9 39 39 undefined N/A 30.07 1018 N/A 0 0
6:54 pm 18:54 undefined 83 28.3 60 15.6 46 46 undefined N/A 30.06 1018 N/A 0 0
7:54 pm 19:54 undefined 81 27.2 60 15.6 49 49 undefined N/A 30.06 1018 N/A 0 0
8:54 pm 20:54 undefined 79 26.1 60 15.6 52 52 undefined N/A 30.07 1018 N/A 0 0
9:54 pm 21:54 undefined 78 25.6 61 16.1 56 56 undefined N/A 30.07 1018 N/A 0 0
10:54 pm 22:54 undefined 77 25 61 16.1 58 58 undefined N/A 30.07 1018 N/A 0 0
11:54 pm 23:54 undefined 76 24.4 60 15.6 58 58 undefined N/A 30.06 1018 N/A 0 0

Powered by AerisWeather